Private Wetterstation Sandau
Wetterdaten: Montag, 15.10.2012
Datum Zeit Temp. A. Feuchte A. Luftdruck Regen Wind Richtung Richtung Taupunkt Windchill
15.10.2012 00:01 7,8 C 85 % 1001,7 hPa 0,0 l/m 4,0 km/h (1 Bft) SO 135 5,4 C 7,8 C
15.10.2012 00:06 7,8 C 86 % 1001,6 hPa 0,0 l/m 2,2 km/h (1 Bft) O-SO 112 5,6 C 7,8 C
15.10.2012 00:11 7,8 C 86 % 1001,4 hPa 0,0 l/m 3,6 km/h (1 Bft) O-SO 112 5,6 C 7,8 C
15.10.2012 00:16 7,6 C 87 % 1001,2 hPa 0,0 l/m 3,2 km/h (1 Bft) SO 135 5,6 C 7,6 C
15.10.2012 00:21 7,6 C 87 % 1001,1 hPa 0,5 l/m 0,0 km/h (0 Bft) SO 135 5,6 C 7,6 C
15.10.2012 00:26 7,6 C 87 % 1001,1 hPa 0,0 l/m 0,0 km/h (0 Bft) SO 135 5,6 C 7,6 C
15.10.2012 00:31 7,6 C 87 % 1001,2 hPa 0,0 l/m 0,0 km/h (0 Bft) O-SO 112 5,6 C 7,6 C
15.10.2012 00:36 7,6 C 87 % 1001,0 hPa 0,0 l/m 3,2 km/h (1 Bft) O-SO 112 5,6 C 7,6 C
15.10.2012 00:41 7,5 C 88 % 1001,0 hPa 0,0 l/m 2,5 km/h (1 Bft) NO 45 5,6 C 7,5 C
15.10.2012 00:46 7,5 C 88 % 1000,8 hPa 0,0 l/m 0,0 km/h (0 Bft) O-NO 67 5,6 C 7,5 C
15.10.2012 00:51 7,4 C 88 % 1000,7 hPa 0,0 l/m 0,0 km/h (0 Bft) O-NO 67 5,5 C 7,4 C
15.10.2012 00:56 7,4 C 88 % 1000,6 hPa 0,5 l/m 2,5 km/h (1 Bft) NO 45 5,5 C 7,4 C
15.10.2012 01:01 7,4 C 88 % 1000,4 hPa 0,0 l/m 3,6 km/h (1 Bft) N-NO 22 5,5 C 7,4 C
15.10.2012 01:06 7,3 C 89 % 1000,4 hPa 0,0 l/m 3,6 km/h (1 Bft) NO 45 5,6 C 7,3 C
15.10.2012 01:11 7,3 C 89 % 1000,4 hPa 0,0 l/m 2,9 km/h (1 Bft) NO 45 5,6 C 7,3 C
15.10.2012 01:16 7,3 C 89 % 1000,4 hPa 0,0 l/m 0,0 km/h (0 Bft) NO 45 5,6 C 7,3 C
15.10.2012 01:21 7,3 C 89 % 1000,2 hPa 0,0 l/m 3,6 km/h (1 Bft) NO 45 5,6 C 7,3 C
15.10.2012 01:26 7,3 C 89 % 1000,3 hPa 0,0 l/m 1,8 km/h (1 Bft) NO 45 5,6 C 7,3 C
15.10.2012 01:31 7,3 C 89 % 1000,2 hPa 0,0 l/m 2,9 km/h (1 Bft) O-SO 112 5,6 C 7,3 C
15.10.2012 01:36 7,3 C 89 % 1000,4 hPa 0,0 l/m 2,5 km/h (1 Bft) SO 135 5,6 C 7,3 C
15.10.2012 01:41 7,3 C 90 % 1000,4 hPa 0,5 l/m 0,0 km/h (0 Bft) O-SO 112 5,8 C 7,3 C
15.10.2012 01:46 7,3 C 90 % 1000,2 hPa 0,0 l/m 2,5 km/h (1 Bft) O-SO 112 5,8 C 7,3 C
15.10.2012 01:51 7,3 C 90 % 1000,2 hPa 0,0 l/m 2,5 km/h (1 Bft) O-SO 112 5,8 C 7,3 C
15.10.2012 01:56 7,3 C 90 % 1000,2 hPa 0,0 l/m 0,0 km/h (0 Bft) NO 45 5,8 C 7,3 C
15.10.2012 02:01 7,3 C 90 % 1000,2 hPa 0,5 l/m 0,0 km/h (0 Bft) O 90 5,8 C 7,3 C
15.10.2012 02:06 7,3 C 90 % 1000,2 hPa 0,0 l/m 4,0 km/h (1 Bft) O-SO 112 5,8 C 7,3 C
15.10.2012 02:11 7,3 C 90 % 1000,0 hPa 0,0 l/m 0,0 km/h (0 Bft) O-SO 112 5,8 C 7,3 C
15.10.2012 02:16 7,3 C 90 % 1000,0 hPa 0,0 l/m 2,2 km/h (1 Bft) O-SO 112 5,8 C 7,3 C
15.10.2012 02:21 7,3 C 90 % 1000,2 hPa 0,5 l/m 0,0 km/h (0 Bft) O-SO 112 5,8 C 7,3 C
15.10.2012 02:26 7,3 C 90 % 1000,1 hPa 0,0 l/m 0,0 km/h (0 Bft) O-NO 67 5,8 C 7,3 C
15.10.2012 02:31 7,3 C 90 % 1000,2 hPa 0,0 l/m 0,0 km/h (0 Bft) O-SO 112 5,8 C 7,3 C
15.10.2012 02:36 7,3 C 90 % 1000,2 hPa 0,5 l/m 0,0 km/h (0 Bft) SW 225 5,8 C 7,3 C
15.10.2012 02:41 7,3 C 90 % 1000,1 hPa 0,0 l/m 2,2 km/h (1 Bft) O-NO 67 5,8 C 7,3 C
15.10.2012 02:46 7,3 C 90 % 1000,0 hPa 0,5 l/m 0,0 km/h (0 Bft) N-NO 22 5,8 C 7,3 C
15.10.2012 02:51 7,3 C 90 % 1000,0 hPa 0,0 l/m 2,2 km/h (1 Bft) W 270 5,8 C 7,3 C
15.10.2012 02:56 7,3 C 90 % 999,9 hPa 0,0 l/m 8,3 km/h (2 Bft) O-NO 67 5,8 C 5,8 C
15.10.2012 03:01 7,3 C 90 % 999,5 hPa 0,0 l/m 10,8 km/h (2 Bft) O-NO 67 5,8 C 5,3 C
15.10.2012 03:06 7,3 C 90 % 998,9 hPa 0,0 l/m 7,6 km/h (2 Bft) O-NO 67 5,8 C 5,9 C
15.10.2012 03:11 7,3 C 90 % 999,0 hPa 0,0 l/m 10,4 km/h (2 Bft) O-SO 112 5,8 C 5,3 C
15.10.2012 03:16 7,4 C 89 % 999,2 hPa 0,0 l/m 3,6 km/h (1 Bft) S-SW 202 5,7 C 7,4 C
15.10.2012 03:21 7,4 C 89 % 999,0 hPa 0,0 l/m 6,1 km/h (2 Bft) O 90 5,7 C 6,5 C
15.10.2012 03:26 7,4 C 89 % 998,8 hPa 0,0 l/m 5,8 km/h (2 Bft) O-NO 67 5,7 C 6,5 C
15.10.2012 03:31 7,4 C 89 % 998,9 hPa 0,0 l/m 6,1 km/h (2 Bft) O-NO 67 5,7 C 6,5 C
15.10.2012 03:36 7,4 C 89 % 998,7 hPa 0,0 l/m 5,4 km/h (1 Bft) O-NO 67 5,7 C 6,7 C
15.10.2012 03:41 7,4 C 89 % 998,6 hPa 0,0 l/m 6,5 km/h (2 Bft) O-NO 67 5,7 C 6,3 C
15.10.2012 03:46 7,3 C 89 % 998,7 hPa 0,0 l/m 5,0 km/h (1 Bft) O-NO 67 5,6 C 6,7 C
15.10.2012 03:51 7,3 C 89 % 998,7 hPa 0,0 l/m 3,6 km/h (1 Bft) O-SO 112 5,6 C 7,3 C
15.10.2012 03:56 7,3 C 89 % 998,8 hPa 0,0 l/m 2,5 km/h (1 Bft) O 90 5,6 C 7,3 C
15.10.2012 04:01 7,3 C 89 % 998,7 hPa 0,0 l/m 10,1 km/h (2 Bft) O-SO 112 5,6 C 5,4 C
15.10.2012 04:06 7,3 C 89 % 998,6 hPa 0,0 l/m 5,0 km/h (1 Bft) O-NO 67 5,6 C 6,7 C
15.10.2012 04:11 7,2 C 89 % 998,6 hPa 0,0 l/m 4,3 km/h (1 Bft) O-SO 112 5,5 C 7,2 C
15.10.2012 04:16 7,2 C 89 % 998,6 hPa 0,0 l/m 4,0 km/h (1 Bft) O 90 5,5 C 7,2 C
15.10.2012 04:21 7,2 C 89 % 998,7 hPa 0,0 l/m 10,1 km/h (2 Bft) O 90 5,5 C 5,3 C
15.10.2012 04:26 7,2 C 90 % 998,5 hPa 0,0 l/m 4,0 km/h (1 Bft) O-SO 112 5,7 C 7,2 C
15.10.2012 04:31 7,2 C 90 % 998,4 hPa 0,0 l/m 4,7 km/h (1 Bft) O 90 5,7 C 6,7 C
15.10.2012 04:36 7,2 C 90 % 998,4 hPa 0,0 l/m 0,0 km/h (0 Bft) O-SO 112 5,7 C 7,2 C
15.10.2012 04:41 7,2 C 90 % 998,3 hPa 0,0 l/m 5,4 km/h (1 Bft) O-SO 112 5,7 C 6,4 C
15.10.2012 04:46 7,2 C 90 % 998,3 hPa 0,0 l/m 10,8 km/h (2 Bft) O-SO 112 5,7 C 5,1 C
15.10.2012 04:51 7,2 C 90 % 998,3 hPa 0,0 l/m 3,6 km/h (1 Bft) O-SO 112 5,7 C 7,2 C
15.10.2012 04:56 7,2 C 90 % 998,4 hPa 0,0 l/m 8,3 km/h (2 Bft) SO 135 5,7 C 5,6 C
15.10.2012 05:01 7,2 C 90 % 998,2 hPa 0,0 l/m 8,3 km/h (2 Bft) SO 135 5,7 C 5,6 C
15.10.2012 05:06 7,2 C 90 % 998,3 hPa 0,0 l/m 3,2 km/h (1 Bft) SO 135 5,7 C 7,2 C
15.10.2012 05:11 7,2 C 90 % 998,3 hPa 0,0 l/m 5,0 km/h (1 Bft) O-SO 112 5,7 C 6,6 C
15.10.2012 05:16 7,2 C 90 % 998,1 hPa 0,0 l/m 2,2 km/h (1 Bft) O-SO 112 5,7 C 7,2 C
15.10.2012 05:21 7,2 C 90 % 998,2 hPa 0,0 l/m 5,4 km/h (1 Bft) O-SO 112 5,7 C 6,4 C
15.10.2012 05:26 7,2 C 90 % 998,2 hPa 0,0 l/m 2,9 km/h (1 Bft) O-SO 112 5,7 C 7,2 C
15.10.2012 05:31 7,2 C 90 % 998,1 hPa 0,0 l/m 3,6 km/h (1 Bft) O-SO 112 5,7 C 7,2 C
15.10.2012 05:36 7,2 C 90 % 998,1 hPa 0,0 l/m 4,0 km/h (1 Bft) O-SO 112 5,7 C 7,2 C
15.10.2012 05:41 7,2 C 91 % 998,1 hPa 0,0 l/m 6,5 km/h (2 Bft) O-SO 112 5,8 C 6,1 C
15.10.2012 05:46 7,2 C 91 % 998,2 hPa 0,0 l/m 2,9 km/h (1 Bft) SO 135 5,8 C 7,2 C
15.10.2012 05:51 7,2 C 91 % 998,0 hPa 0,0 l/m 5,0 km/h (1 Bft) O-SO 112 5,8 C 6,6 C
15.10.2012 05:56 7,2 C 91 % 998,2 hPa 0,0 l/m 6,1 km/h (2 Bft) S-SO 157 5,8 C 6,2 C
15.10.2012 06:01 7,2 C 91 % 998,2 hPa 0,0 l/m 4,3 km/h (1 Bft) S-SO 157 5,8 C 7,2 C
15.10.2012 06:06 7,2 C 91 % 998,2 hPa 0,0 l/m 5,4 km/h (1 Bft) O-SO 112 5,8 C 6,4 C
15.10.2012 06:11 7,2 C 91 % 998,3 hPa 0,0 l/m 1,8 km/h (1 Bft) SO 135 5,8 C 7,2 C
15.10.2012 06:16 7,2 C 91 % 998,0 hPa 0,0 l/m 3,2 km/h (1 Bft) O-SO 112 5,8 C 7,2 C
15.10.2012 06:21 7,2 C 91 % 998,1 hPa 0,0 l/m 0,0 km/h (0 Bft) SO 135 5,8 C 7,2 C
15.10.2012 06:26 7,3 C 91 % 997,9 hPa 0,0 l/m 3,2 km/h (1 Bft) O-SO 112 5,9 C 7,3 C
15.10.2012 06:31 7,3 C 91 % 997,6 hPa 0,0 l/m 2,5 km/h (1 Bft) SO 135 5,9 C 7,3 C
15.10.2012 06:36 7,3 C 91 % 997,6 hPa 0,0 l/m 3,6 km/h (1 Bft) O-SO 112 5,9 C 7,3 C
15.10.2012 06:41 7,3 C 91 % 997,6 hPa 0,0 l/m 5,4 km/h (1 Bft) O-SO 112 5,9 C 6,6 C
15.10.2012 06:46 7,3 C 91 % 997,8 hPa 0,0 l/m 1,4 km/h (1 Bft) SO 135 5,9 C 7,3 C
15.10.2012 06:51 7,3 C 91 % 997,8 hPa 0,0 l/m 3,2 km/h (1 Bft) S-SO 157 5,9 C 7,3 C
15.10.2012 06:56 7,3 C 91 % 998,0 hPa 0,0 l/m 3,2 km/h (1 Bft) SO 135 5,9 C 7,3 C
15.10.2012 07:01 7,3 C 91 % 997,9 hPa 0,0 l/m 0,0 km/h (0 Bft) O-SO 112 5,9 C 7,3 C
15.10.2012 07:06 7,3 C 91 % 997,9 hPa 0,0 l/m 4,0 km/h (1 Bft) SO 135 5,9 C 7,3 C
15.10.2012 07:11 7,3 C 91 % 997,7 hPa 0,0 l/m 2,9 km/h (1 Bft) SO 135 5,9 C 7,3 C
15.10.2012 07:16 7,4 C 91 % 997,9 hPa 0,0 l/m 4,0 km/h (1 Bft) SO 135 6,0 C 7,4 C
15.10.2012 07:21 7,3 C 91 % 998,0 hPa 0,0 l/m 3,6 km/h (1 Bft) SO 135 5,9 C 7,3 C
15.10.2012 07:26 7,4 C 91 % 998,0 hPa 0,0 l/m 2,5 km/h (1 Bft) S-SO 157 6,0 C 7,4 C
15.10.2012 07:31 7,4 C 91 % 998,3 hPa 0,0 l/m 4,7 km/h (1 Bft) S-SO 157 6,0 C 6,9 C
15.10.2012 07:36 7,4 C 91 % 998,3 hPa 0,0 l/m 2,2 km/h (1 Bft) SO 135 6,0 C 7,4 C
15.10.2012 07:41 7,4 C 91 % 998,3 hPa 0,0 l/m 3,2 km/h (1 Bft) SO 135 6,0 C 7,4 C
15.10.2012 07:46 7,4 C 91 % 998,1 hPa 0,0 l/m 2,5 km/h (1 Bft) SO 135 6,0 C 7,4 C
15.10.2012 07:51 7,4 C 91 % 998,3 hPa 0,0 l/m 5,0 km/h (1 Bft) S-SO 157 6,0 C 6,8 C
15.10.2012 07:56 7,4 C 91 % 998,2 hPa 0,0 l/m 5,4 km/h (1 Bft) SO 135 6,0 C 6,7 C
15.10.2012 08:01 7,4 C 91 % 998,2 hPa 0,0 l/m 2,2 km/h (1 Bft) O-SO 112 6,0 C 7,4 C
15.10.2012 08:06 7,4 C 92 % 998,2 hPa 0,0 l/m 4,0 km/h (1 Bft) O-SO 112 6,2 C 7,4 C
15.10.2012 08:11 7,4 C 92 % 998,2 hPa 0,0 l/m 0,0 km/h (0 Bft) O-SO 112 6,2 C 7,4 C
15.10.2012 08:16 7,4 C 92 % 998,3 hPa 0,0 l/m 0,0 km/h (0 Bft) O-SO 112 6,2 C 7,4 C
15.10.2012 08:21 7,4 C 92 % 998,5 hPa 0,0 l/m 0,0 km/h (0 Bft) O-SO 112 6,2 C 7,4 C
15.10.2012 08:26 7,5 C 92 % 998,4 hPa 0,0 l/m 0,0 km/h (0 Bft) O-SO 112 6,3 C 7,5 C
15.10.2012 08:31 7,5 C 92 % 998,5 hPa 0,0 l/m 0,0 km/h (0 Bft) O-SO 112 6,3 C 7,5 C
15.10.2012 08:36 7,6 C 92 % 998,5 hPa 0,0 l/m 0,0 km/h (0 Bft) O-SO 112 6,4 C 7,6 C
15.10.2012 08:41 7,6 C 92 % 998,7 hPa 0,0 l/m 0,0 km/h (0 Bft) O-SO 112 6,4 C 7,6 C
15.10.2012 08:46 7,6 C 92 % 998,7 hPa 0,0 l/m 0,0 km/h (0 Bft) O-SO 112 6,4 C 7,6 C
15.10.2012 08:51 7,6 C 92 % 998,8 hPa 0,0 l/m 0,0 km/h (0 Bft) O-SO 112 6,4 C 7,6 C
15.10.2012 08:56 7,8 C 92 % 998,8 hPa 0,0 l/m 0,0 km/h (0 Bft) O-SO 112 6,6 C 7,8 C
15.10.2012 09:01 7,8 C 92 % 998,6 hPa 0,0 l/m 1,1 km/h (1 Bft) O-SO 112 6,6 C 7,8 C
15.10.2012 09:06 7,7 C 92 % 998,8 hPa 0,0 l/m 0,0 km/h (0 Bft) O-SO 112 6,5 C 7,7 C
15.10.2012 09:11 7,8 C 92 % 998,6 hPa 0,0 l/m 0,0 km/h (0 Bft) O-SO 112 6,6 C 7,8 C
15.10.2012 09:16 7,8 C 92 % 998,6 hPa 0,0 l/m 1,8 km/h (1 Bft) O-SO 112 6,6 C 7,8 C
15.10.2012 09:21 7,8 C 92 % 998,5 hPa 0,0 l/m 0,0 km/h (0 Bft) O-SO 112 6,6 C 7,8 C
15.10.2012 09:26 7,9 C 92 % 998,4 hPa 0,0 l/m 0,0 km/h (0 Bft) O-SO 112 6,7 C 7,9 C
15.10.2012 09:31 7,9 C 92 % 998,9 hPa 0,0 l/m 0,0 km/h (0 Bft) O-SO 112 6,7 C 7,9 C
15.10.2012 09:36 8,1 C 92 % 999,1 hPa 0,0 l/m 1,4 km/h (1 Bft) S-SO 157 6,9 C 8,1 C
15.10.2012 09:41 8,2 C 92 % 999,3 hPa 0,0 l/m 1,1 km/h (1 Bft) SO 135 7,0 C 8,2 C
15.10.2012 09:46 8,3 C 92 % 999,2 hPa 0,0 l/m 0,0 km/h (0 Bft) S-SO 157 7,1 C 8,3 C
15.10.2012 09:51 8,4 C 92 % 999,3 hPa 0,0 l/m 2,2 km/h (1 Bft) SO 135 7,2 C 8,4 C
15.10.2012 09:56 8,4 C 92 % 999,3 hPa 0,0 l/m 0,0 km/h (0 Bft) SO 135 7,2 C 8,4 C
15.10.2012 10:01 8,6 C 92 % 999,4 hPa 0,0 l/m 0,0 km/h (0 Bft) SO 135 7,4 C 8,6 C
15.10.2012 10:06 8,7 C 91 % 999,4 hPa 0,0 l/m 1,4 km/h (1 Bft) SO 135 7,3 C 8,7 C
15.10.2012 10:11 8,8 C 91 % 999,4 hPa 0,0 l/m 1,4 km/h (1 Bft) W-SW 247 7,4 C 8,8 C
15.10.2012 10:16 8,9 C 92 % 999,7 hPa 0,0 l/m 0,0 km/h (0 Bft) S-SO 157 7,7 C 8,9 C
15.10.2012 10:21 9,0 C 92 % 999,7 hPa 0,0 l/m 0,0 km/h (0 Bft) S-SO 157 7,8 C 9,0 C
15.10.2012 10:26 9,0 C 91 % 999,9 hPa 0,0 l/m 2,5 km/h (1 Bft) S-SW 202 7,6 C 9,0 C
15.10.2012 10:31 9,1 C 91 % 999,9 hPa 0,0 l/m 5,8 km/h (2 Bft) W-SW 247 7,7 C 8,5 C
15.10.2012 10:36 9,1 C 91 % 999,7 hPa 0,0 l/m 3,6 km/h (1 Bft) W-SW 247 7,7 C 9,1 C
15.10.2012 10:41 9,1 C 91 % 999,9 hPa 0,0 l/m 2,2 km/h (1 Bft) W-SW 247 7,7 C 9,1 C
15.10.2012 10:46 9,2 C 91 % 1000,1 hPa 0,0 l/m 4,0 km/h (1 Bft) W 270 7,8 C 9,2 C
15.10.2012 10:51 9,2 C 90 % 1000,2 hPa 0,0 l/m 8,3 km/h (2 Bft) W-SW 247 7,6 C 8,0 C
15.10.2012 10:56 9,2 C 90 % 1000,4 hPa 0,0 l/m 9,7 km/h (2 Bft) W-SW 247 7,6 C 7,7 C
15.10.2012 11:01 9,1 C 90 % 1000,3 hPa 0,0 l/m 16,6 km/h (3 Bft) W-SW 247 7,5 C 6,6 C
15.10.2012 11:06 9,0 C 90 % 1000,2 hPa 0,0 l/m 12,6 km/h (3 Bft) W-SW 247 7,4 C 7,0 C
15.10.2012 11:11 9,0 C 90 % 1000,5 hPa 0,0 l/m 9,0 km/h (2 Bft) W 270 7,4 C 7,6 C
15.10.2012 11:16 9,0 C 90 % 1000,4 hPa 0,0 l/m 7,2 km/h (2 Bft) W-SW 247 7,4 C 8,0 C
15.10.2012 11:21 9,1 C 90 % 1000,4 hPa 0,0 l/m 5,4 km/h (1 Bft) W 270 7,5 C 8,6 C
15.10.2012 11:26 9,2 C 90 % 1000,5 hPa 0,0 l/m 10,1 km/h (2 Bft) W-NW 292 7,6 C 7,7 C
15.10.2012 11:31 9,2 C 90 % 1000,7 hPa 0,0 l/m 3,6 km/h (1 Bft) W 270 7,6 C 9,2 C
15.10.2012 11:36 9,1 C 90 % 1000,8 hPa 0,0 l/m 26,3 km/h (4 Bft) W 270 7,5 C 5,7 C
15.10.2012 11:41 9,1 C 89 % 1000,8 hPa 0,0 l/m 3,6 km/h (1 Bft) W-SW 247 7,4 C 9,1 C
15.10.2012 11:46 9,1 C 89 % 1001,0 hPa 0,0 l/m 0,0 km/h (0 Bft) W-SW 247 7,4 C 9,1 C
15.10.2012 11:51 9,1 C 89 % 1001,0 hPa 0,0 l/m 12,2 km/h (2 Bft) W-SW 247 7,4 C 7,2 C
15.10.2012 11:56 9,1 C 89 % 1001,0 hPa 0,0 l/m 7,6 km/h (2 Bft) W-SW 247 7,4 C 8,0 C
15.10.2012 12:01 9,2 C 89 % 1000,9 hPa 0,0 l/m 7,2 km/h (2 Bft) W-NW 292 7,5 C 8,2 C
15.10.2012 12:06 9,2 C 89 % 1001,1 hPa 0,0 l/m 5,4 km/h (1 Bft) W-SW 247 7,5 C 8,7 C
15.10.2012 12:11 9,3 C 89 % 1001,1 hPa 0,0 l/m 2,9 km/h (1 Bft) W 270 7,6 C 9,3 C
15.10.2012 12:16 9,3 C 89 % 1001,0 hPa 0,0 l/m 3,6 km/h (1 Bft) W 270 7,6 C 9,3 C
15.10.2012 12:21 9,4 C 89 % 1001,3 hPa 0,0 l/m 4,7 km/h (1 Bft) W 270 7,7 C 9,2 C
15.10.2012 12:26 9,5 C 89 % 1001,6 hPa 0,0 l/m 14,0 km/h (3 Bft) W 270 7,8 C 7,4 C
15.10.2012 12:31 9,4 C 88 % 1001,9 hPa 0,0 l/m 15,5 km/h (3 Bft) W-SW 247 7,5 C 7,1 C
15.10.2012 12:36 9,3 C 88 % 1002,0 hPa 0,0 l/m 6,8 km/h (2 Bft) W 270 7,4 C 8,5 C
15.10.2012 12:41 9,3 C 88 % 1002,1 hPa 0,0 l/m 13,7 km/h (3 Bft) W 270 7,4 C 7,2 C
15.10.2012 12:46 9,5 C 88 % 1002,3 hPa 0,0 l/m 13,0 km/h (3 Bft) W-NW 292 7,6 C 7,6 C
15.10.2012 12:51 9,4 C 87 % 1002,3 hPa 0,0 l/m 3,6 km/h (1 Bft) S-SW 202 7,3 C 9,4 C
15.10.2012 12:56 9,3 C 87 % 1002,0 hPa 0,0 l/m 9,4 km/h (2 Bft) W-NW 292 7,2 C 7,9 C
15.10.2012 13:01 9,1 C 87 % 1001,9 hPa 0,0 l/m 4,3 km/h (1 Bft) W-SW 247 7,1 C 9,1 C
15.10.2012 13:06 9,2 C 87 % 1001,9 hPa 0,0 l/m 17,3 km/h (3 Bft) W-SW 247 7,2 C 6,7 C
15.10.2012 13:11 9,2 C 88 % 1002,1 hPa 0,0 l/m 15,8 km/h (3 Bft) W 270 7,3 C 6,8 C
15.10.2012 13:16 9,3 C 88 % 1002,3 hPa 0,0 l/m 12,2 km/h (2 Bft) W-SW 247 7,4 C 7,4 C
15.10.2012 13:21 9,3 C 87 % 1002,6 hPa 0,0 l/m 9,4 km/h (2 Bft) W-SW 247 7,2 C 7,9 C
15.10.2012 13:26 9,3 C 87 % 1002,7 hPa 0,0 l/m 10,8 km/h (2 Bft) W-SW 247 7,2 C 7,7 C
15.10.2012 13:31 9,3 C 87 % 1002,7 hPa 0,0 l/m 6,5 km/h (2 Bft) SW 225 7,2 C 8,5 C
15.10.2012 13:36 9,4 C 87 % 1002,6 hPa 0,0 l/m 11,2 km/h (2 Bft) W 270 7,3 C 7,7 C
15.10.2012 13:41 9,4 C 87 % 1002,7 hPa 0,0 l/m 6,5 km/h (2 Bft) W-SW 247 7,3 C 8,7 C
15.10.2012 13:46 9,5 C 87 % 1002,6 hPa 0,0 l/m 6,1 km/h (2 Bft) W 270 7,4 C 8,9 C
15.10.2012 13:51 9,6 C 87 % 1003,0 hPa 0,0 l/m 5,8 km/h (2 Bft) W-SW 247 7,5 C 9,1 C
15.10.2012 13:56 9,7 C 87 % 1003,2 hPa 0,0 l/m 10,4 km/h (2 Bft) W 270 7,6 C 8,2 C
15.10.2012 14:01 9,7 C 86 % 1003,0 hPa 0,0 l/m 9,7 km/h (2 Bft) W-SW 247 7,5 C 8,3 C
15.10.2012 14:06 9,8 C 86 % 1003,2 hPa 0,0 l/m 9,7 km/h (2 Bft) W-SW 247 7,6 C 8,4 C
15.10.2012 14:11 9,7 C 86 % 1003,5 hPa 0,0 l/m 11,5 km/h (2 Bft) W-SW 247 7,5 C 8,0 C
15.10.2012 14:16 9,6 C 85 % 1003,6 hPa 0,0 l/m 13,7 km/h (3 Bft) W-SW 247 7,2 C 7,6 C
15.10.2012 14:21 9,6 C 85 % 1003,7 hPa 0,0 l/m 16,6 km/h (3 Bft) W 270 7,2 C 7,2 C
15.10.2012 14:26 9,6 C 85 % 1003,7 hPa 0,0 l/m 11,9 km/h (2 Bft) W-SW 247 7,2 C 7,8 C
15.10.2012 14:31 9,5 C 85 % 1003,8 hPa 0,0 l/m 16,2 km/h (3 Bft) W-SW 247 7,1 C 7,2 C
15.10.2012 14:36 9,5 C 85 % 1003,7 hPa 0,0 l/m 9,0 km/h (2 Bft) SW 225 7,1 C 8,2 C
15.10.2012 14:41 9,6 C 85 % 1003,5 hPa 0,0 l/m 16,2 km/h (3 Bft) W-SW 247 7,2 C 7,3 C
15.10.2012 14:46 9,8 C 85 % 1003,7 hPa 0,0 l/m 7,2 km/h (2 Bft) W-SW 247 7,4 C 8,9 C
15.10.2012 14:51 9,8 C 85 % 1003,9 hPa 0,0 l/m 5,0 km/h (1 Bft) W-SW 247 7,4 C 9,5 C
15.10.2012 14:56 9,9 C 85 % 1004,0 hPa 0,0 l/m 11,2 km/h (2 Bft) W-SW 247 7,5 C 8,3 C
15.10.2012 15:01 9,9 C 85 % 1004,1 hPa 0,0 l/m 10,4 km/h (2 Bft) W-SW 247 7,5 C 8,4 C
15.10.2012 15:06 9,9 C 85 % 1004,1 hPa 0,0 l/m 14,4 km/h (3 Bft) W-SW 247 7,5 C 7,9 C
15.10.2012 15:11 9,9 C 85 % 1004,2 hPa 0,0 l/m 10,4 km/h (2 Bft) W 270 7,5 C 8,4 C
15.10.2012 15:16 9,9 C 85 % 1004,2 hPa 0,0 l/m 21,6 km/h (4 Bft) W 270 7,5 C 7,1 C
15.10.2012 15:21 9,9 C 85 % 1004,2 hPa 0,0 l/m 14,8 km/h (3 Bft) W 270 7,5 C 7,8 C
15.10.2012 15:26 9,9 C 85 % 1004,4 hPa 0,0 l/m 10,1 km/h (2 Bft) W-SW 247 7,5 C 8,5 C
15.10.2012 15:31 9,9 C 85 % 1004,6 hPa 0,0 l/m 9,0 km/h (2 Bft) SW 225 7,5 C 8,7 C
15.10.2012 15:36 10,1 C 85 % 1004,6 hPa 0,0 l/m 14,8 km/h (3 Bft) S-SW 202 7,7 C 10,1 C
15.10.2012 15:41 10,1 C 84 % 1004,6 hPa 0,0 l/m 14,8 km/h (3 Bft) SW 225 7,5 C 10,1 C
15.10.2012 15:46 10,1 C 84 % 1004,7 hPa 0,0 l/m 14,8 km/h (3 Bft) W-SW 247 7,5 C 10,1 C
15.10.2012 15:51 9,9 C 84 % 1004,6 hPa 0,0 l/m 33,5 km/h (5 Bft) W-SW 247 7,3 C 6,2 C
15.10.2012 15:56 9,9 C 84 % 1004,8 hPa 0,0 l/m 9,0 km/h (2 Bft) W-SW 247 7,3 C 8,7 C
15.10.2012 16:01 9,9 C 85 % 1004,8 hPa 0,0 l/m 22,0 km/h (4 Bft) W-SW 247 7,5 C 7,1 C
15.10.2012 16:06 10,1 C 85 % 1005,0 hPa 0,0 l/m 13,3 km/h (3 Bft) W-SW 247 7,7 C 10,1 C
15.10.2012 16:11 10,2 C 84 % 1005,0 hPa 0,0 l/m 8,3 km/h (2 Bft) SW 225 7,6 C 10,2 C
15.10.2012 16:16 10,3 C 84 % 1005,1 hPa 0,0 l/m 14,4 km/h (3 Bft) S-SW 202 7,7 C 10,3 C
15.10.2012 16:21 10,3 C 83 % 1005,1 hPa 0,0 l/m 14,4 km/h (3 Bft) W-SW 247 7,5 C 10,3 C
15.10.2012 16:26 10,3 C 83 % 1005,1 hPa 0,0 l/m 14,0 km/h (3 Bft) SW 225 7,5 C 10,3 C
15.10.2012 16:31 10,4 C 83 % 1005,2 hPa 0,0 l/m 11,2 km/h (2 Bft) SW 225 7,6 C 10,4 C
15.10.2012 16:36 10,4 C 83 % 1005,2 hPa 0,0 l/m 7,2 km/h (2 Bft) W-SW 247 7,6 C 10,4 C
15.10.2012 16:41 10,4 C 84 % 1005,4 hPa 0,0 l/m 3,2 km/h (1 Bft) W-SW 247 7,8 C 10,4 C
15.10.2012 16:46 10,3 C 83 % 1005,5 hPa 0,0 l/m 14,4 km/h (3 Bft) W 270 7,5 C 10,3 C
15.10.2012 16:51 10,2 C 83 % 1005,5 hPa 0,0 l/m 12,6 km/h (3 Bft) W 270 7,4 C 10,2 C
15.10.2012 16:56 10,1 C 84 % 1005,6 hPa 0,0 l/m 9,7 km/h (2 Bft) W 270 7,5 C 10,1 C
15.10.2012 17:01 10,1 C 84 % 1005,8 hPa 0,0 l/m 13,3 km/h (3 Bft) W-SW 247 7,5 C 10,1 C
15.10.2012 17:06 10,0 C 85 % 1005,9 hPa 0,0 l/m 9,0 km/h (2 Bft) W 270 7,6 C 8,8 C
15.10.2012 17:11 9,9 C 85 % 1006,0 hPa 0,0 l/m 9,7 km/h (2 Bft) W-SW 247 7,5 C 8,6 C
15.10.2012 17:16 9,9 C 85 % 1006,0 hPa 0,0 l/m 5,8 km/h (2 Bft) W-SW 247 7,5 C 9,4 C
15.10.2012 17:21 9,9 C 85 % 1006,0 hPa 0,0 l/m 4,7 km/h (1 Bft) S 180 7,5 C 9,7 C
15.10.2012 17:26 9,9 C 85 % 1005,9 hPa 0,0 l/m 6,5 km/h (2 Bft) W-SW 247 7,5 C 9,2 C
15.10.2012 17:31 9,9 C 85 % 1006,0 hPa 0,0 l/m 11,9 km/h (2 Bft) W-SW 247 7,5 C 8,2 C
15.10.2012 17:36 9,9 C 85 % 1006,1 hPa 0,0 l/m 8,3 km/h (2 Bft) W-SW 247 7,5 C 8,8 C
15.10.2012 17:41 9,9 C 85 % 1006,5 hPa 0,0 l/m 5,8 km/h (2 Bft) W 270 7,5 C 9,4 C
15.10.2012 17:46 9,9 C 85 % 1006,4 hPa 0,0 l/m 6,1 km/h (2 Bft) W-SW 247 7,5 C 9,3 C
15.10.2012 17:51 9,9 C 85 % 1006,5 hPa 0,0 l/m 16,9 km/h (3 Bft) W-SW 247 7,5 C 7,6 C
15.10.2012 17:56 9,9 C 85 % 1006,6 hPa 0,0 l/m 11,2 km/h (2 Bft) SW 225 7,5 C 8,3 C
15.10.2012 18:01 9,9 C 85 % 1006,6 hPa 0,0 l/m 9,4 km/h (2 Bft) W 270 7,5 C 8,6 C
15.10.2012 18:06 9,8 C 85 % 1006,7 hPa 0,0 l/m 5,0 km/h (1 Bft) W-SW 247 7,4 C 9,5 C
15.10.2012 18:11 9,8 C 85 % 1006,7 hPa 0,0 l/m 9,0 km/h (2 Bft) W 270 7,4 C 8,6 C
15.10.2012 18:16 9,8 C 85 % 1006,7 hPa 0,0 l/m 4,7 km/h (1 Bft) W-SW 247 7,4 C 9,6 C
15.10.2012 18:21 9,8 C 85 % 1006,9 hPa 0,0 l/m 10,4 km/h (2 Bft) W 270 7,4 C 8,3 C
15.10.2012 18:26 9,8 C 85 % 1007,0 hPa 0,0 l/m 6,8 km/h (2 Bft) SW 225 7,4 C 9,0 C
15.10.2012 18:31 9,8 C 85 % 1007,0 hPa 0,0 l/m 6,1 km/h (2 Bft) W 270 7,4 C 9,2 C
15.10.2012 18:36 9,8 C 85 % 1007,2 hPa 0,0 l/m 5,8 km/h (2 Bft) S-SW 202 7,4 C 9,3 C
15.10.2012 18:41 9,6 C 85 % 1007,1 hPa 0,0 l/m 9,4 km/h (2 Bft) S-SW 202 7,2 C 8,3 C
15.10.2012 18:46 9,6 C 85 % 1007,2 hPa 0,0 l/m 6,5 km/h (2 Bft) W-SW 247 7,2 C 8,9 C
15.10.2012 18:51 9,6 C 84 % 1007,3 hPa 0,0 l/m 10,1 km/h (2 Bft) S 180 7,0 C 8,1 C
15.10.2012 18:56 9,5 C 84 % 1007,4 hPa 0,0 l/m 14,0 km/h (3 Bft) W-SW 247 6,9 C 7,4 C
15.10.2012 19:01 9,5 C 84 % 1007,4 hPa 0,0 l/m 5,8 km/h (2 Bft) SW 225 6,9 C 9,0 C
15.10.2012 19:06 9,4 C 84 % 1007,5 hPa 0,0 l/m 4,7 km/h (1 Bft) W-SW 247 6,8 C 9,2 C
15.10.2012 19:11 9,4 C 84 % 1007,6 hPa 0,0 l/m 8,3 km/h (2 Bft) SW 225 6,8 C 8,2 C
15.10.2012 19:16 9,3 C 84 % 1007,8 hPa 0,0 l/m 9,4 km/h (2 Bft) W-SW 247 6,7 C 7,9 C
15.10.2012 19:21 9,3 C 84 % 1007,9 hPa 0,0 l/m 6,8 km/h (2 Bft) SW 225 6,7 C 8,5 C
15.10.2012 19:26 9,3 C 84 % 1007,9 hPa 0,0 l/m 12,2 km/h (2 Bft) W-SW 247 6,7 C 7,4 C
15.10.2012 19:31 9,3 C 84 % 1007,8 hPa 0,0 l/m 16,9 km/h (3 Bft) SW 225 6,7 C 6,8 C
15.10.2012 19:36 9,3 C 85 % 1007,9 hPa 0,0 l/m 10,1 km/h (2 Bft) S-SW 202 6,9 C 7,8 C
15.10.2012 19:41 9,3 C 85 % 1008,1 hPa 0,0 l/m 12,6 km/h (3 Bft) W-SW 247 6,9 C 7,4 C
15.10.2012 19:46 9,3 C 84 % 1008,1 hPa 0,0 l/m 7,6 km/h (2 Bft) S-SW 202 6,7 C 8,3 C
15.10.2012 19:51 9,3 C 84 % 1008,3 hPa 0,0 l/m 7,9 km/h (2 Bft) SW 225 6,7 C 8,2 C
15.10.2012 19:56 9,3 C 84 % 1008,4 hPa 0,0 l/m 13,0 km/h (3 Bft) SW 225 6,7 C 7,3 C
15.10.2012 20:01 9,3 C 84 % 1008,4 hPa 0,0 l/m 11,5 km/h (2 Bft) W-SW 247 6,7 C 7,5 C
15.10.2012 20:06 9,3 C 84 % 1008,4 hPa 0,0 l/m 7,9 km/h (2 Bft) W-SW 247 6,7 C 8,2 C
15.10.2012 20:11 9,2 C 84 % 1008,4 hPa 0,0 l/m 6,8 km/h (2 Bft) W-SW 247 6,6 C 8,3 C
15.10.2012 20:16 9,1 C 84 % 1008,5 hPa 0,0 l/m 9,7 km/h (2 Bft) W-SW 247 6,5 C 7,6 C
15.10.2012 20:21 9,1 C 84 % 1008,6 hPa 0,0 l/m 12,2 km/h (2 Bft) W 270 6,5 C 7,2 C
15.10.2012 20:26 8,9 C 84 % 1008,8 hPa 0,0 l/m 8,3 km/h (2 Bft) O-SO 112 6,3 C 7,7 C
15.10.2012 20:31 8,9 C 84 % 1008,8 hPa 0,0 l/m 8,3 km/h (2 Bft) SW 225 6,3 C 7,7 C
15.10.2012 20:36 8,8 C 84 % 1008,9 hPa 0,0 l/m 5,8 km/h (2 Bft) SW 225 6,2 C 8,1 C
15.10.2012 20:41 8,7 C 84 % 1008,9 hPa 0,0 l/m 5,8 km/h (2 Bft) W-SW 247 6,2 C 8,0 C
15.10.2012 20:46 8,6 C 84 % 1008,7 hPa 0,0 l/m 10,4 km/h (2 Bft) W-SW 247 6,1 C 6,9 C
15.10.2012 20:51 8,5 C 85 % 1009,1 hPa 0,0 l/m 6,8 km/h (2 Bft) SW 225 6,1 C 7,5 C
15.10.2012 20:56 8,4 C 85 % 1009,0 hPa 0,0 l/m 13,7 km/h (3 Bft) SW 225 6,0 C 6,1 C
15.10.2012 21:01 8,3 C 85 % 1008,9 hPa 0,0 l/m 5,8 km/h (2 Bft) SW 225 5,9 C 7,6 C
15.10.2012 21:06 8,2 C 85 % 1009,1 hPa 0,0 l/m 7,6 km/h (2 Bft) W-SW 247 5,8 C 7,0 C
15.10.2012 21:11 8,1 C 85 % 1009,1 hPa 0,0 l/m 7,9 km/h (2 Bft) S-SW 202 5,7 C 6,8 C
15.10.2012 21:16 8,0 C 86 % 1009,4 hPa 0,0 l/m 7,2 km/h (2 Bft) SW 225 5,8 C 6,8 C
15.10.2012 21:21 7,9 C 86 % 1009,3 hPa 0,0 l/m 7,6 km/h (2 Bft) SW 225 5,7 C 6,6 C
15.10.2012 21:26 7,8 C 86 % 1009,4 hPa 0,0 l/m 6,1 km/h (2 Bft) W-SW 247 5,6 C 6,9 C
15.10.2012 21:31 7,8 C 86 % 1009,3 hPa 0,0 l/m 8,3 km/h (2 Bft) SW 225 5,6 C 6,4 C
15.10.2012 21:36 7,6 C 86 % 1009,3 hPa 0,0 l/m 7,2 km/h (2 Bft) SW 225 5,4 C 6,4 C
15.10.2012 21:41 7,6 C 86 % 1009,4 hPa 0,0 l/m 7,9 km/h (2 Bft) SW 225 5,4 C 6,2 C
15.10.2012 21:46 7,5 C 87 % 1009,5 hPa 0,0 l/m 4,0 km/h (1 Bft) S-SW 202 5,5 C 7,5 C
15.10.2012 21:51 7,4 C 87 % 1009,5 hPa 0,0 l/m 9,0 km/h (2 Bft) W 270 5,4 C 5,7 C
15.10.2012 21:56 7,3 C 87 % 1009,6 hPa 0,0 l/m 6,8 km/h (2 Bft) S-SW 202 5,3 C 6,1 C
15.10.2012 22:01 7,3 C 87 % 1009,8 hPa 0,0 l/m 7,2 km/h (2 Bft) W-SW 247 5,3 C 6,0 C
15.10.2012 22:06 7,3 C 87 % 1009,9 hPa 0,0 l/m 2,5 km/h (1 Bft) S-SW 202 5,3 C 7,3 C
15.10.2012 22:11 7,2 C 87 % 1009,9 hPa 0,0 l/m 5,0 km/h (1 Bft) S-SW 202 5,2 C 6,6 C
15.10.2012 22:16 7,2 C 87 % 1009,7 hPa 0,0 l/m 4,0 km/h (1 Bft) S-SW 202 5,2 C 7,2 C
15.10.2012 22:21 7,1 C 87 % 1009,9 hPa 0,0 l/m 7,2 km/h (2 Bft) SW 225 5,1 C 5,8 C
15.10.2012 22:26 7,1 C 87 % 1010,0 hPa 0,0 l/m 5,0 km/h (1 Bft) SW 225 5,1 C 6,5 C
15.10.2012 22:31 6,9 C 87 % 1010,2 hPa 0,0 l/m 2,5 km/h (1 Bft) S 180 4,9 C 6,9 C
15.10.2012 22:36 6,9 C 87 % 1010,2 hPa 0,0 l/m 2,9 km/h (1 Bft) S-SW 202 4,9 C 6,9 C
15.10.2012 22:41 6,8 C 87 % 1010,2 hPa 0,0 l/m 4,0 km/h (1 Bft) S-SO 157 4,8 C 6,8 C
15.10.2012 22:46 6,8 C 87 % 1010,4 hPa 0,0 l/m 3,2 km/h (1 Bft) S 180 4,8 C 6,8 C
15.10.2012 22:51 6,6 C 87 % 1010,2 hPa 0,0 l/m 5,0 km/h (1 Bft) S 180 4,6 C 5,9 C
15.10.2012 22:56 6,5 C 87 % 1010,3 hPa 0,0 l/m 6,5 km/h (2 Bft) S 180 4,5 C 5,3 C
15.10.2012 23:01 6,4 C 87 % 1010,4 hPa 0,0 l/m 5,4 km/h (1 Bft) S-SW 202 4,4 C 5,5 C
15.10.2012 23:06 6,3 C 87 % 1010,4 hPa 0,0 l/m 4,7 km/h (1 Bft) S-SO 157 4,3 C 5,7 C
15.10.2012 23:11 6,3 C 88 % 1010,3 hPa 0,0 l/m 8,3 km/h (2 Bft) S-SW 202 4,5 C 4,6 C
15.10.2012 23:16 6,2 C 88 % 1010,4 hPa 0,0 l/m 4,0 km/h (1 Bft) S 180 4,4 C 6,2 C
15.10.2012 23:21 6,1 C 88 % 1010,4 hPa 0,0 l/m 5,0 km/h (1 Bft) SW 225 4,3 C 5,3 C
15.10.2012 23:26 6,1 C 88 % 1010,5 hPa 0,0 l/m 3,6 km/h (1 Bft) S-SW 202 4,3 C 6,1 C
15.10.2012 23:31 6,1 C 88 % 1010,5 hPa 0,0 l/m 8,3 km/h (2 Bft) S-SW 202 4,3 C 4,4 C
15.10.2012 23:36 5,9 C 88 % 1010,5 hPa 0,0 l/m 5,8 km/h (2 Bft) S-SW 202 4,1 C 4,8 C
15.10.2012 23:41 5,9 C 89 % 1010,5 hPa 0,0 l/m 5,8 km/h (2 Bft) S-SW 202 4,2 C 4,8 C
15.10.2012 23:46 5,9 C 89 % 1010,4 hPa 0,0 l/m 3,6 km/h (1 Bft) S 180 4,2 C 5,9 C
15.10.2012 23:51 5,9 C 89 % 1010,3 hPa 0,0 l/m 6,1 km/h (2 Bft) S-SW 202 4,2 C 4,7 C
15.10.2012 23:56 5,8 C 89 % 1010,4 hPa 0,0 l/m 5,4 km/h (1 Bft) S 180 4,1 C 4,8 C
_ Min-Zeit 23:56 16:21 06:31 - 00:21 - - 23:36 23:31
Minimum _ 5,8 C 83 % 997,6 hPa - 0,0 km/h (0 Bft) - - 4,1 C 4,4 C
_ Max-Zeit 16:31 08:06 23:26 00:21 15:51 - - 16:41 16:31
Maximum _ 10,4 C 92 % 1010,5 hPa 0,5 l/m 33,5 km/h
W-SW (5 Bft)
- - 7,8 C 10,4 C
Durchschnitt _ 8,3 C 88 % 1002,8 hPa #3,6 l/m 6,3 km/h (2 Bft) W-SW - 6,4 C 7,6 C
(c) by David Heller